Regional Weather Roundup
Issued by NWS Northern Indiana

Home | Current Version | Previous Version | Graphics & Text | Print | Product List | Glossary On
Versions: 1 2 3 4 5 6 7 8 9 10 11 12 13 14 15 16 17 18 19 20 21 22 23 24 25 26 27 28 29 30 31 32 33 34 35 36 37 38 39 40 41 42 43 44 45 46 47 48 49 50
000
ASUS43 KIWX 310510
RWRIWX

KIWX WEATHER ROUNDUP
NATIONAL WEATHER SERVICE NORTHERN INDIANA
100 AM EDT FRI JUL 31 2015

NOTE: "FAIR" INDICATES FEW OR NO CLOUDS BELOW 12,000 FEET WITH NO
SIGNIFICANT WEATHER AND/OR OBSTRUCTIONS TO VISIBILITY.

* THESE STATIONS ARE NOT UNDER NWS QUALITY CONTROL. THEY ALSO MAY NOT
  REPORT WEATHER SUCH AS PRECIPITATION OR FOG.

INZ001>027-310600-
NORTHERN INDIANA

CITY           SKY/WX    TMP DP  RH WIND       PRES   REMARKS
GARY*          CLEAR     75  62  64 SW3       30.02S
VALPARAISO     CLEAR     69  61  75 SW6       30.03S
MICHIGAN CITY* CLEAR     64  59  82 CALM      30.02S
LAPORTE*       CLEAR     67  62  82 SW5       30.03S
KNOX*          CLEAR     66  61  82 SW7       30.02S
SOUTH BEND     CLEAR     70  60  70 CALM      30.02S
GOSHEN         CLEAR     66  59  78 SW7       30.02S
MONTICELLO*    CLEAR     68  64  85 CALM      30.04S
LOGANSPORT*    CLEAR     63  59  88 SW5       30.05S
ROCHESTER*     CLEAR     72  61  68 SW3       30.04F
WARSAW*        CLEAR     68  61  77 CALM      30.03S
ANGOLA*        CLEAR     64  61  88 CALM      30.02S
FORT WAYNE     CLEAR     66  60  81 SW7       30.04S
HUNTINGTON*    CLEAR     67  61  80 SW3       30.03F
PERU/GRISSOM   CLEAR     65  61  86 SW5       30.04S
MARION*        CLEAR     64  59  84 CALM      30.06S

$$
INZ028>050-310600-
CENTRAL INDIANA

CITY           SKY/WX    TMP DP  RH WIND       PRES   REMARKS
LAFAYETTE      CLEAR     67  64  90 CALM      30.05S
KOKOMO*        CLEAR     66  59  77 W6        30.05S
MUNCIE*        CLEAR     68  60  75 W7        30.06S
INDIANAPOLIS   PTCLDY    71  61  70 W5        30.06S

$$
MIZ043>046-050>051-056>058-064>065-071>073-077>080-310600-
SOUTHWEST LOWER MICHIGAN

CITY           SKY/WX    TMP DP  RH WIND       PRES   REMARKS
BATTLE CREEK   CLEAR     69  59  70 SW8       30.00S
BENTON HARBOR  CLEAR     72  63  73 W7        29.99S
COLDWATER*     PTCLDY    65  58  76 SW3       30.01R
HILLSDALE*     CLEAR     69  58  66 SW3       30.01S
HOLLAND        CLEAR     75  57  53 W6        29.98S
GRAND RAPIDS   CLEAR     69  60  73 W8        29.97S
KALAMAZOO      CLEAR     68  58  70 SW7       30.00S
STURGIS*       CLEAR     68  57  68 CALM      30.01S
THREE RIVERS*  FAIR      66  58  77 CALM      30.01S

$$
OHZ001>008-015>018-024>025-310600-
NORTHWEST OHIO

CITY           SKY/WX    TMP DP  RH WIND       PRES   REMARKS
WAUSEON*       FAIR      66  61  82 W6        30.01R
DEFIANCE       CLEAR     67  58  72 S3        30.01S
FINDLAY        CLEAR     66  57  72 SW6       30.01S
TOLEDO EXPRESS CLEAR     69  57  65 SW7       30.00R
TOLEDO METCALF CLEAR     70  58  65 SW6       30.00S
LIMA           CLEAR     64  59  83 SW3       30.04S

$$
AND FOR LAKE MICHIGAN COASTAL AND OPEN LAKE BUOY OBSERVATIONS

STATION/POSITION TEMP    WIND        PRES    VSBY  WAVE
                 AIR SEA DIR/SP/G                  HT/PER
                 (F)     (DEG/KT/KT) (MB)    (MI)  (FT/S)
CALUMET HARBOR    79     250/  4/  7   N/A
MICHIGAN CITY     75     180/  9/ 10   N/A
BURNS HARBOR      78     240/ 10/ 12 1016.6S
SAINT JOSEPH      74     210/  6/  8 1016.3R
4 MI NW BRIDGMAN  75 74  280/  8/ 10   N/A           1/ 3
MICHIGAN CITY     76 75  260/ 10/ 12   N/A           1/ 3

$$
&&



USA.gov is the U.S. government's official web portal to all federal, state and local government web resources and services.